[[{"header":{"parameterUnit":"m.s-1","parameterCategory":1,"la1":30.2991,"la2":30.254,"lo1":-89.0895,"lo2":-89.0444,"dy":0.0017,"dx":0.0017,"nx":28,"ny":28,"refTime":"2025-12-20T03:00:00:Z","depth":0,"parameterNumber":2,"parameterNumberName":"U-component_of_WINDS"},"data":[0,0,0,0,0,0,0,0,0,0,0,0,0,0,0,0,0,0,0,0,0,0,0,0,0,0,0,0,0,0,0,0,0,0,0,0,0,0,0,0,0,0,0,0,0,0,0,0,0,0,0,0,0,0,0,0,0,0,-1.5558,-1.5559,0,-1.5643,-1.5644,-1.5645,-1.5683,-1.5683,-1.5683,-1.5683,-1.577,-1.5772,-1.5774,0,0,0,0,0,0,0,0,0,0,0,0,0,-1.5429,-1.5431,-1.5558,-1.5559,-1.556,-1.5643,-1.5644,-1.5645,-1.5683,-1.5683,-1.5683,-1.5683,-1.5769,-1.5772,-1.5774,0,0,0,0,0,0,0,0,0,0,0,0,0,-1.5496,-1.5432,-1.5558,-1.559,-1.5593,-1.5642,-1.5644,-1.5645,-1.5683,-1.5683,-1.5683,-1.5683,-1.5768,-1.5771,-1.5775,-1.5799,0,0,-1.5786,-1.5787,0,0,0,0,0,0,0,0,-1.5492,-1.5501,-1.5584,-1.5587,-1.5592,-1.5652,-1.563,-1.5697,-1.5683,-1.5649,-1.5683,-1.5683,-1.5731,-1.5737,-1.5753,-1.5803,-1.5807,-1.5786,-1.5788,-1.579,-1.5791,0,0,0,0,0,0,0,-1.5488,-1.5497,-1.5592,-1.5585,-1.559,-1.5599,-1.5608,-1.5643,-1.569,-1.5652,-1.5655,-1.5665,-1.5733,-1.575,-1.5756,-1.5808,-1.5786,-1.5789,-1.5791,-1.5793,-1.588,-1.588,0,0,0,0,0,0,-1.5478,-1.5493,-1.5589,-1.5594,-1.5541,-1.5601,-1.5612,-1.5633,-1.5689,-1.5698,-1.5665,-1.5666,-1.5744,-1.5752,-1.5759,-1.579,-1.579,-1.5793,-1.5795,-1.588,-1.588,-1.588,0,0,0,0,0,0,-1.5475,-1.5486,-1.5586,-1.5545,-1.5558,-1.5604,-1.5627,-1.5635,-1.5652,-1.5699,-1.5707,-1.5674,-1.5744,-1.5754,-1.5788,-1.5794,-1.5795,-1.5798,-1.588,-1.588,-1.588,-1.5853,0,0,0,0,0,0,-1.5471,-1.5485,-1.5495,-1.5545,-1.556,-1.5614,-1.5627,-1.5636,-1.5658,-1.5661,-1.5709,-1.5717,-1.5745,-1.5783,-1.5792,-1.5798,-1.5801,-1.5879,-1.588,-1.588,-1.5853,-1.5852,-1.5851,0,0,0,0,0,-1.5466,-1.5484,-1.5495,-1.5507,-1.5574,-1.5614,-1.5623,-1.5654,-1.5658,-1.5668,-1.5698,-1.5716,-1.5791,-1.5786,-1.5797,-1.5804,-1.5879,-1.588,-1.588,-1.5854,-1.5852,-1.5851,0,0,0,0,0,0,-1.5435,-1.5492,-1.5504,-1.5539,-1.5571,-1.5621,-1.5635,-1.5652,-1.5684,-1.5685,-1.5722,-1.5733,-1.5764,-1.5788,-1.5781,-1.583,-1.5837,-1.5839,-1.5813,-1.5812,-1.5811,-1.5805,-1.5804,0,0,0,0,0,-1.5432,-1.546,-1.5508,-1.5534,-1.555,-1.5589,-1.5608,-1.5629,-1.5664,-1.5678,-1.5711,-1.5744,-1.5775,-1.5795,-1.5826,-1.5857,-1.5867,-1.5867,-1.5866,-1.5864,-1.5866,-1.5883,-1.5883,-1.5882,-1.5882,-1.5882,0,0,-1.5426,-1.5461,-1.5476,-1.5528,-1.5556,-1.5584,-1.5601,-1.563,-1.5651,-1.5683,-1.5717,-1.5742,-1.5781,-1.5813,-1.5829,-1.5834,-1.5869,-1.5865,-1.5863,-1.5866,-1.5883,-1.5883,-1.5883,-1.5882,-1.5882,-1.5882,0,0,-1.543,-1.5459,-1.5483,-1.551,-1.5551,-1.5577,-1.5583,-1.5629,-1.5647,-1.5681,-1.5705,-1.5731,-1.5784,-1.581,-1.5831,-1.5842,-1.5859,-1.5851,-1.5845,-1.586,-1.5861,-1.5861,-1.5864,-1.5865,-1.5853,-1.5853,-1.5853,0,-1.5418,-1.5461,-1.5493,-1.5521,-1.5543,-1.5572,-1.5596,-1.562,-1.567,-1.5684,-1.5688,-1.5754,-1.5783,-1.5821,-1.5824,-1.5839,-1.5846,-1.5846,-1.5858,-1.5859,-1.5859,-1.5863,-1.5864,-1.5852,-1.5852,-1.5852,-1.5852,0,-1.5443,-1.5473,-1.5487,-1.5533,-1.5557,-1.5582,-1.5618,-1.5637,-1.5655,-1.568,-1.5714,-1.575,-1.5788,-1.5798,-1.5817,-1.5839,-1.584,-1.5851,-1.5859,-1.5857,-1.5861,-1.5863,-1.585,-1.585,-1.5851,-1.5851,0,0,-1.5431,-1.5493,-1.5498,-1.5519,-1.5565,-1.5589,-1.5615,-1.5652,-1.5667,-1.5699,-1.5722,-1.5765,-1.5775,-1.5798,-1.5819,-1.5833,-1.5838,-1.5842,-1.5843,-1.584,-1.5863,-1.5855,-1.5856,-1.585,-1.585,-1.585,-1.586,0,-1.5441,-1.549,-1.5518,-1.5555,-1.5582,-1.5609,-1.5631,-1.5662,-1.5685,-1.5711,-1.5737,-1.5767,-1.5778,-1.5792,-1.5806,-1.5835,-1.5844,-1.5834,-1.587,-1.5871,-1.586,-1.5858,-1.585,-1.5857,-1.5861,-1.5862,-1.5862,0,-1.546,-1.5491,-1.5529,-1.5571,-1.5584,-1.5604,-1.5639,-1.5663,-1.5698,-1.5714,-1.5738,-1.576,-1.5788,-1.5793,-1.5831,-1.5824,-1.584,-1.5856,-1.5857,-1.5862,-1.5867,-1.5862,-1.586,-1.5861,-1.5865,-1.5865,-1.5864,0,-1.5446,-1.5497,-1.5527,-1.5544,-1.5593,-1.5606,-1.5628,-1.5662,-1.5682,-1.5713,-1.5726,-1.5759,-1.5777,-1.5802,-1.5832,-1.5833,-1.5867,-1.5875,-1.5881,-1.588,-1.5887,-1.5886,-1.5887,-1.5897,-1.5897,-1.5897,-1.5897,0,-1.5454,-1.5477,-1.5521,-1.5539,-1.5565,-1.5597,-1.5621,-1.5645,-1.5674,-1.5697,-1.5723,-1.5743,-1.5781,-1.5806,-1.5829,-1.5857,-1.5865,-1.5878,-1.5884,-1.5876,-1.5874,-1.5887,-1.5888,-1.5898,-1.5898,-1.5898,-1.5897,0,-1.5443,-1.5474,-1.5508,-1.5552,-1.5563,-1.558,-1.5617,-1.5635,-1.5659,-1.5687,-1.5696,-1.5734,-1.5764,-1.5796,-1.5838,-1.5853,-1.588,-1.5888,-1.5868,-1.5871,-1.5875,-1.5874,-1.5885,-1.5887,-1.5896,-1.5896,-1.5895,0,-1.5447,-1.5464,-1.5509,-1.5526,-1.5546,-1.5573,-1.5593,-1.5625,-1.5644,-1.5684,-1.5697,-1.5729,-1.5757,-1.5804,-1.5836,-1.5867,-1.5876,-1.5878,-1.5881,-1.5872,-1.5876,-1.5874,-1.5876,-1.5876,-1.5876,-1.5876,-1.5876,0,-1.5448,-1.5462,-1.549,-1.5522,-1.5545,-1.5572,-1.56,-1.5612,-1.5649,-1.567,-1.5701,-1.5722,-1.5764,-1.5796,-1.5831,-1.5852,-1.587,-1.5874,-1.5877,-1.5869,-1.5857,-1.5863,-1.5864,-1.5874,-1.5874,-1.5874,-1.5874,-1.5875,-1.5445,-1.5461,-1.5495,-1.5524,-1.5548,-1.5573,-1.5592,-1.5618,-1.5644,-1.568,-1.5697,-1.5728,-1.5761,-1.581,-1.5831,-1.5855,-1.586,-1.5865,-1.5866,-1.5867,-1.5864,-1.5852,-1.5862,-1.5862,-1.5862,-1.5862,-1.5862,0,-1.5447,-1.547,-1.5496,-1.5534,-1.5557,-1.5571,-1.5602,-1.562,-1.5647,-1.5676,-1.5702,-1.5737,-1.5767,-1.58,-1.5832,-1.5845,-1.5854,-1.5852,-1.5852,-1.5856,-1.5858,-1.5852,-1.5845,-1.5845,-1.5845,-1.5845,-1.5845,-1.5845,-1.5451,-1.5479,-1.5497,-1.5536,-1.5559,-1.5589,-1.5606,-1.5629,-1.5651,-1.5689,-1.5714,-1.5735,-1.5765,-1.5799,-1.5827,-1.5836,-1.5847,-1.5843,-1.5854,-1.5855,-1.5856,-1.5858,-1.5852,-1.5845,-1.5845,-1.585,-1.585,-1.585]},{"header":{"parameterUnit":"m.s-1","parameterCategory":1,"la1":30.2991,"la2":30.254,"lo1":-89.0895,"lo2":-89.0444,"dy":0.0017,"dx":0.0017,"nx":28,"ny":28,"refTime":"2025-12-20T03:00:00:Z","depth":0,"parameterNumber":3,"parameterNumberName":"V-component_of_WINDS"},"data":[0,0,0,0,0,0,0,0,0,0,0,0,0,0,0,0,0,0,0,0,0,0,0,0,0,0,0,0,0,0,0,0,0,0,0,0,0,0,0,0,0,0,0,0,0,0,0,0,0,0,0,0,0,0,0,0,0,0,2.9948,2.9949,0,3.0041,3.0043,3.0044,3.0145,3.0147,3.0148,3.015,3.0244,3.0245,3.0246,0,0,0,0,0,0,0,0,0,0,0,0,0,2.9857,2.9858,2.9947,2.9949,2.995,3.0041,3.0043,3.0044,3.0145,3.0147,3.0149,3.015,3.0243,3.0244,3.0246,0,0,0,0,0,0,0,0,0,0,0,0,0,2.9918,2.9859,2.9947,3.0011,3.0018,3.0041,3.0043,3.0044,3.0145,3.0147,3.0149,3.0151,3.0243,3.0244,3.0246,3.0213,0,0,3.0251,3.0252,0,0,0,0,0,0,0,0,2.9915,2.9921,3.0001,3.0007,3.0015,3.0084,3.0045,3.0101,3.0144,3.0097,3.015,3.0152,3.0189,3.0195,3.0208,3.0217,3.0221,3.0251,3.0252,3.0253,3.0254,0,0,0,0,0,0,0,2.991,2.9918,2.9985,3.0002,3.001,3.0036,3.0047,3.0056,3.0129,3.0101,3.0108,3.0118,3.0193,3.0206,3.021,3.0222,3.0251,3.0253,3.0254,3.0255,3.0215,3.0213,0,0,0,0,0,0,2.9896,2.9914,2.9982,2.9988,2.9969,3.0036,3.0048,3.0059,3.0129,3.0142,3.0116,3.0123,3.0202,3.0208,3.0214,3.0184,3.0253,3.0255,3.0256,3.0217,3.0215,3.0212,0,0,0,0,0,0,2.9894,2.9901,2.9978,2.9953,2.9965,3.0035,3.0047,3.006,3.0073,3.0141,3.0154,3.0116,3.0204,3.0212,3.0214,3.0188,3.0256,3.0257,3.022,3.0216,3.0214,3.012,0,0,0,0,0,0,2.9891,2.99,2.9887,2.9952,2.9965,2.9975,3.0045,3.006,3.0076,3.0085,3.0144,3.0156,3.0206,3.0211,3.0215,3.0192,3.0258,3.0222,3.0218,3.0215,3.0126,3.0114,3.0104,0,0,0,0,0,2.9887,2.9856,2.9886,2.9894,2.9951,2.9973,2.9981,3.004,3.0074,3.0063,3.0107,3.0154,3.019,3.021,3.0216,3.0193,3.0224,3.0219,3.0215,3.0131,3.0116,3.0104,0,0,0,0,0,0,2.9785,2.9865,2.99,2.9888,2.9923,2.9991,2.9978,3.0022,3.0048,3.0055,3.0126,3.0139,3.0133,3.0163,3.0184,3.0167,3.0214,3.021,3.0148,3.0135,3.0125,3.0118,3.026,0,0,0,0,0,2.9761,2.9772,2.9842,2.9825,2.9841,2.9906,2.9918,2.996,3.0,3.0015,3.0059,3.0095,3.0115,3.0126,3.0148,3.013,3.0147,3.0118,3.0107,3.0098,3.0094,3.0092,3.0081,3.0197,3.0197,3.0197,0,0,2.9712,2.9757,2.9759,2.9805,2.9838,2.9849,2.9918,2.9926,2.9936,3.0016,3.0022,3.0055,3.01,3.0094,3.0093,3.0118,3.0066,3.0092,3.0084,3.0086,3.0086,3.0075,3.0065,3.0194,3.0195,3.0195,0,0,2.9628,2.9662,2.9654,2.9686,2.9735,2.9779,2.9777,2.9839,2.9865,2.9872,2.9934,2.9947,2.9978,3.0009,3.0029,2.9962,3.0008,2.9967,2.9911,2.9908,2.9899,2.9891,2.9871,2.9862,2.9963,2.9962,2.9962,0,2.9561,2.958,2.9644,2.965,2.967,2.9745,2.9739,2.9766,2.9819,2.9831,2.9859,2.9904,2.9939,2.9943,2.9927,2.9939,2.9942,2.9961,2.9895,2.9888,2.9882,2.9863,2.9855,2.9957,2.9958,2.9958,2.9959,0,2.9497,2.951,2.9497,2.9549,2.9568,2.9566,2.9632,2.9643,2.9684,2.9726,2.9734,2.978,2.9814,2.9818,2.9857,2.9829,2.9844,2.9882,2.9931,2.9865,2.9849,2.9842,2.995,2.9952,2.9953,2.9955,0,0,2.9351,2.9441,2.9435,2.9462,2.9523,2.9534,2.9538,2.9574,2.9583,2.9618,2.9625,2.9652,2.969,2.9712,2.9756,2.9752,2.9702,2.9792,2.9795,2.9777,2.9678,2.9651,2.9641,2.9732,2.9731,2.973,2.9675,0,2.9281,2.9293,2.9353,2.9348,2.9363,2.9436,2.944,2.9479,2.9518,2.9537,2.9581,2.9601,2.9646,2.9661,2.9661,2.9708,2.9683,2.9712,2.9742,2.9742,2.9731,2.9632,2.9603,2.9549,2.9669,2.9668,2.9667,0,2.92,2.9233,2.923,2.9296,2.9304,2.9306,2.9346,2.9362,2.9409,2.9438,2.9465,2.9516,2.9526,2.9571,2.9588,2.9606,2.9622,2.9647,2.9646,2.9653,2.9702,2.964,2.9533,2.9526,2.9657,2.9658,2.9659,0,2.9099,2.9142,2.9147,2.9167,2.9242,2.9243,2.9274,2.9323,2.9341,2.9376,2.9389,2.9423,2.9442,2.9468,2.9528,2.9554,2.9539,2.9588,2.9566,2.9565,2.9561,2.9561,2.9458,2.9566,2.9566,2.9566,2.9566,0,2.9017,2.9013,2.9104,2.9107,2.9106,2.9175,2.9172,2.9211,2.9254,2.9267,2.9331,2.9342,2.9418,2.9439,2.9485,2.9494,2.9501,2.9527,2.954,2.9523,2.952,2.9536,2.9542,2.9564,2.9564,2.9565,2.9565,0,2.8904,2.8964,2.8975,2.9046,2.9064,2.9061,2.9122,2.9129,2.9174,2.919,2.9198,2.9268,2.9296,2.9357,2.94,2.9432,2.9431,2.9452,2.9416,2.9425,2.9401,2.9403,2.9307,2.9299,2.9408,2.9407,2.9406,0,2.8848,2.8848,2.892,2.8934,2.8964,2.8985,2.9006,2.9073,2.9092,2.9148,2.9149,2.9182,2.9213,2.9254,2.9309,2.9344,2.9368,2.9332,2.9374,2.9358,2.9372,2.9373,2.9375,2.9323,2.9322,2.932,2.9319,0,2.8745,2.8776,2.8803,2.8842,2.8865,2.8898,2.8935,2.8943,2.902,2.9039,2.9069,2.9093,2.914,2.9173,2.9217,2.925,2.9299,2.9306,2.9303,2.9287,2.9268,2.9282,2.9394,2.9308,2.9309,2.931,2.9311,2.9311,2.8663,2.8667,2.872,2.8749,2.8785,2.8819,2.883,2.8877,2.8904,2.8948,2.8987,2.9014,2.9065,2.9129,2.9159,2.9183,2.9207,2.9202,2.9201,2.92,2.9194,2.9262,2.919,2.9191,2.9191,2.9192,2.9192,0,2.8566,2.8604,2.8631,2.8682,2.8705,2.8749,2.8794,2.8811,2.8835,2.8878,2.8907,2.8944,2.8978,2.9037,2.9076,2.9084,2.9107,2.9092,2.9093,2.9101,2.9169,2.9169,2.9073,2.9073,2.9073,2.9073,2.9073,2.9073,2.8519,2.8531,2.8568,2.8599,2.8638,2.8666,2.8688,2.8721,2.8756,2.8795,2.8824,2.8862,2.8913,2.8957,2.899,2.9007,2.902,2.8998,2.9022,2.9084,2.9096,2.9106,2.9107,2.8999,2.8999,2.8953,2.8953,2.8952]}]]